📊 Raw Sensor Data
Showing records 47751 to 47775 of 85,090 total
| ID | Distance (ft) | Battery V | Battery A | Int Temp (°F) | Int Humid (%) | Ext Temp (°F) | Solar V | RSSI | SNR | Time Stamp |
|---|---|---|---|---|---|---|---|---|---|---|
| 37352 | -- | 3.84 | 0 | 92 | 42 | 82 | 5.10 | -75 | 8 | 04/09/2025 05:16 PM |
| 37351 | -- | 3.84 | 0 | 92 | 42 | 82 | 5.10 | -74 | 8 | 04/09/2025 05:00 PM |
| 37350 | -- | 3.84 | 0 | 92 | 41 | 82 | 5.10 | -75 | 8 | 04/09/2025 04:46 PM |
| 37349 | -- | 4.07 | 0 | 93 | 41 | 82 | 5.10 | -77 | 9 | 04/09/2025 04:30 PM |
| 37348 | -- | 3.93 | 0 | 92 | 40 | 81 | 5.10 | -75 | 9 | 04/09/2025 04:15 PM |
| 37347 | -- | 4.03 | 0 | 92 | 39 | 81 | 5.10 | -76 | 9 | 04/09/2025 04:00 PM |
| 37346 | -- | 3.91 | 0 | 92 | 39 | 81 | 5.10 | -76 | 9 | 04/09/2025 03:45 PM |
| 37345 | -- | 3.84 | 0 | 90 | 39 | 81 | 5.10 | -76 | 9 | 04/09/2025 03:30 PM |
| 37344 | -- | 3.84 | 0 | 90 | 39 | 80 | 5.10 | -77 | 8 | 04/09/2025 03:15 PM |
| 37343 | -- | 3.91 | 0 | 89 | 38 | 79 | 5.10 | -75 | 9 | 04/09/2025 03:00 PM |
| 37342 | -- | 3.84 | 0 | 88 | 38 | 78 | 5.10 | -78 | 8 | 04/09/2025 02:46 PM |
| 37341 | -- | 3.84 | 0 | 86 | 38 | 78 | 5.10 | -76 | 9 | 04/09/2025 02:30 PM |
| 37340 | -- | 3.84 | 0 | 84 | 38 | 76 | 5.10 | -78 | 9 | 04/09/2025 02:00 PM |
| 37339 | -- | 3.84 | 0 | 83 | 38 | 76 | 5.10 | -74 | 9 | 04/09/2025 01:45 PM |
| 37338 | -- | 3.84 | 5 | 81 | 39 | 75 | 5.10 | -77 | 9 | 04/09/2025 01:30 PM |
| 37337 | -- | 3.84 | 0 | 80 | 39 | 74 | 5.10 | -77 | 9 | 04/09/2025 01:15 PM |
| 37336 | -- | 3.84 | 5 | 79 | 39 | 73 | 5.10 | -76 | 8 | 04/09/2025 01:00 PM |
| 37335 | -- | 3.84 | 0 | 78 | 39 | 74 | 5.10 | -76 | 9 | 04/09/2025 12:45 PM |
| 37334 | -- | 3.99 | 0 | 77 | 39 | 72 | 5.10 | -78 | 8 | 04/09/2025 12:30 PM |
| 37333 | -- | 3.85 | 0 | 76 | 39 | 71 | 5.10 | -78 | 9 | 04/09/2025 12:15 PM |
| 37332 | -- | 3.84 | 0 | 75 | 39 | 71 | 5.10 | -78 | 8 | 04/09/2025 12:00 PM |
| 37331 | 15.6 | 3.88 | 0 | 73 | 39 | 70 | 5.10 | -75 | 8 | 04/09/2025 11:30 AM |
| 37330 | -- | 3.84 | 0 | 72 | 38 | 69 | 5.10 | -75 | 9 | 04/09/2025 11:15 AM |
| 37329 | -- | 3.84 | 0 | 71 | 38 | 69 | 5.10 | -76 | 8 | 04/09/2025 11:00 AM |
| 37328 | -- | 3.93 | 0 | 69 | 38 | 67 | 5.10 | -76 | 8 | 04/09/2025 10:45 AM |